Location: Boiro
(42.6475°N, 8.8834°W)
Time: 18:29:43
(UTC+01:00)

deb Explorer IX - All Passes

Search period start: 06 December 2021 00:00
Search period end: 16 December 2021 00:00
Orbit: 546 x 1085 km, 38.8° (Epoch: 05 December)

Date Brightness Start Highest point End Pass type
(mag) Time Alt. Az. Time Alt. Az. Time Alt. Az.
06 Dec - 10:15:45 10° SSW 10:19:55 24° SSE 10:23:41 10° ESE daylight
06 Dec - 12:01:33 10° WSW 12:06:11 47° S 12:10:20 10° E daylight
06 Dec - 13:48:15 10° W 13:52:30 46° S 13:56:27 10° ESE daylight
06 Dec - 15:35:24 10° WSW 15:38:32 21° SSW 15:41:37 10° SSE daylight
07 Dec - 09:50:34 10° SSW 09:54:56 25° SSE 09:58:50 10° ESE daylight
07 Dec - 11:36:25 10° WSW 11:41:14 48° S 11:45:28 10° E daylight
07 Dec - 13:23:11 10° W 13:27:35 47° S 13:31:35 10° ESE daylight
07 Dec - 15:10:23 10° WSW 15:13:37 21° SSW 15:16:44 10° SSE daylight
08 Dec - 09:25:21 10° SSW 09:29:55 26° SSE 09:33:59 10° E daylight
08 Dec - 11:11:16 10° WSW 11:16:15 49° S 11:20:36 10° E daylight
08 Dec - 12:58:06 10° W 13:02:38 48° S 13:06:42 10° ESE daylight
08 Dec - 14:45:21 10° WSW 14:48:40 22° SSW 14:51:50 10° SSE daylight
09 Dec - 09:00:06 10° SSW 09:04:53 26° SSE 09:09:06 10° E daylight
09 Dec - 10:46:04 10° WSW 10:51:15 49° S 10:55:44 10° E daylight
09 Dec - 12:32:58 10° W 12:37:40 49° S 12:41:49 10° ESE daylight
09 Dec - 14:20:16 10° WSW 14:23:42 22° SSW 14:26:58 10° SSE daylight
10 Dec - 08:34:51 10° SSW 08:39:49 27° SSE 08:44:12 10° E daylight
10 Dec - 10:20:51 10° WSW 10:26:13 50° S 10:30:51 10° E daylight
10 Dec - 12:07:48 10° W 12:12:40 50° S 12:16:56 10° ESE daylight
10 Dec - 13:55:09 10° W 13:58:44 23° SSW 14:02:05 10° SSE daylight
11 Dec - 08:09:34 10° SSW 08:14:43 28° SSE 08:19:17 10° E visible
11 Dec - 09:55:36 10° WSW 10:01:10 51° S 10:05:56 10° E daylight
11 Dec - 11:42:36 10° W 11:47:39 51° S 11:52:03 10° ESE daylight
11 Dec - 13:29:59 10° W 13:33:46 24° SSW 13:37:13 10° SSE daylight
12 Dec - 07:44:16 10° SSW 07:49:36 28° SSE 07:54:20 10° E visible
12 Dec - 09:30:19 10° WSW 09:36:05 52° S 09:41:01 10° E daylight
12 Dec - 11:17:22 10° W 11:22:37 52° S 11:27:09 10° ESE daylight
12 Dec - 13:04:47 10° W 13:08:45 25° SSW 13:12:20 10° SSE daylight
13 Dec - 07:18:57 10° SSW 07:24:27 29° SSE 07:29:22 10° E visible
13 Dec - 09:05:01 10° WSW 09:10:59 53° S 09:16:05 10° E daylight
13 Dec - 10:52:07 10° W 10:57:33 54° S 11:02:14 10° ESE daylight
13 Dec - 12:39:33 10° W 12:43:43 26° SSW 12:47:27 10° SSE daylight
14 Dec - 06:53:38 10° SSW 06:59:17 29° SSE 07:04:22 10° E visible
14 Dec - 08:39:42 10° WSW 08:45:51 53° S 08:51:07 10° E daylight
14 Dec - 10:26:49 10° W 10:32:28 55° S 10:37:18 10° ESE daylight
14 Dec - 12:14:18 10° W 12:18:40 27° SSW 12:22:34 10° SSE daylight
15 Dec - 06:28:19 10° SSW 06:34:05 30° SSE 06:39:20 10° E visible
15 Dec - 08:14:21 10° WSW 08:20:41 54° S 08:26:07 10° E visible
15 Dec - 10:01:30 10° W 10:07:21 56° S 10:12:20 10° ESE daylight
15 Dec - 11:49:01 10° W 11:53:36 29° SSW 11:57:39 10° SSE daylight
